Stündliche Wetter Labedzie

Heute, 14 Mai, Freitag

Zeit Temperatur Niederschläge Wind Luftdruck Luftfeuchtigkeit
00:00 +9°C° 0.5 mm 2 m/S 697 mmHg 97%
01:00 +9°C° 0.5 mm 2 m/S 697 mmHg 97%
02:00 +9°C° 0.8 mm 2 m/S 697 mmHg 97%
03:00 +9°C° 0.8 mm 2 m/S 698 mmHg 98%
04:00 +9°C° 0.8 mm 2 m/S 698 mmHg 98%
05:00 +9°C° 0.5 mm 2 m/S 698 mmHg 98%
06:00 +9°C° 0.5 mm 2 m/S 698 mmHg 97%
07:00 +9°C° 0.5 mm 2 m/S 699 mmHg 97%
08:00 +9°C° 0.1 mm 2 m/S 699 mmHg 96%
09:00 +9°C° 0.1 mm 2 m/S 700 mmHg 95%
10:00 +9°C° 0.1 mm 2 m/S 700 mmHg 94%
11:00 +10°C° 0.1 mm 2 m/S 701 mmHg 93%
12:00 +10°C° 0.1 mm 2 m/S 701 mmHg 92%
13:00 +10°C° 0.1 mm 2 m/S 701 mmHg 91%
14:00 +10°C° 0.1 mm 2 m/S 701 mmHg 91%
15:00 +9°C° 0.1 mm 2 m/S 702 mmHg 91%
16:00 +9°C° 0.1 mm 2 m/S 702 mmHg 91%
17:00 +9°C° 0 mm 2 m/S 702 mmHg 91%
18:00 +9°C° 0 mm 2 m/S 702 mmHg 92%
19:00 +9°C° 0 mm 1 m/S 703 mmHg 93%
20:00 +9°C° 0 mm 1 m/S 703 mmHg 93%
21:00 +9°C° 0 mm 1 m/S 703 mmHg 93%
22:00 +9°C° 0 mm 1 m/S 704 mmHg 94%
23:00 +9°C° 0 mm 1 m/S 704 mmHg 94%

Morgen, 15 Mai, Samstag

Zeit Temperatur Niederschläge Wind Luftdruck Luftfeuchtigkeit
00:00 +9°C° 0 mm 1 m/S 704 mmHg 93%
01:00 +9°C° 0 mm 1 m/S 704 mmHg 93%
02:00 +8°C° 0 mm 1 m/S 704 mmHg 93%
03:00 +8°C° 0 mm 1 m/S 704 mmHg 93%
04:00 +8°C° 0 mm 1 m/S 704 mmHg 93%
05:00 +9°C° 0 mm 1 m/S 704 mmHg 89%
06:00 +10°C° 0 mm 1 m/S 704 mmHg 85%
07:00 +12°C° 0 mm 1 m/S 705 mmHg 81%
08:00 +13°C° 0 mm 1 m/S 705 mmHg 74%
09:00 +15°C° 0 mm 1 m/S 705 mmHg 67%
10:00 +16°C° 0 mm 1 m/S 705 mmHg 60%
11:00 +16°C° 0.4 mm 1 m/S 705 mmHg 63%
12:00 +16°C° 0.4 mm 1 m/S 704 mmHg 66%
13:00 +16°C° 0.4 mm 1 m/S 704 mmHg 69%
14:00 +16°C° 0.8 mm 1 m/S 704 mmHg 72%
15:00 +15°C° 0.8 mm 1 m/S 704 mmHg 75%
16:00 +15°C° 0.8 mm 1 m/S 704 mmHg 78%
17:00 +14°C° 0.5 mm 1 m/S 703 mmHg 82%
18:00 +13°C° 0.5 mm 1 m/S 703 mmHg 85%
19:00 +11°C° 0.5 mm 1 m/S 703 mmHg 89%
20:00 +11°C° 0 mm 1 m/S 703 mmHg 90%
21:00 +11°C° 0 mm 1 m/S 703 mmHg 91%
22:00 +10°C° 0 mm 1 m/S 703 mmHg 92%
23:00 +10°C° 0 mm 1 m/S 703 mmHg 93%

übermorgen, 16 Mai, Sonntag

Zeit Temperatur Niederschläge Wind Luftdruck Luftfeuchtigkeit
00:00 +10°C° 0 mm 1 m/S 702 mmHg 93%
01:00 +9°C° 0 mm 1 m/S 702 mmHg 93%
02:00 +9°C° 0 mm 1 m/S 702 mmHg 93%
03:00 +9°C° 0 mm 1 m/S 702 mmHg 93%
04:00 +9°C° 0 mm 1 m/S 702 mmHg 93%
05:00 +10°C° 0.3 mm 1 m/S 702 mmHg 93%
06:00 +11°C° 0.3 mm 1 m/S 702 mmHg 93%
07:00 +11°C° 0.3 mm 1 m/S 702 mmHg 92%
08:00 +11°C° 0.5 mm 1 m/S 702 mmHg 92%
09:00 +10°C° 0.5 mm 2 m/S 703 mmHg 92%
10:00 +10°C° 0.5 mm 2 m/S 703 mmHg 92%
11:00 +10°C° 0.6 mm 2 m/S 703 mmHg 93%
12:00 +10°C° 0.6 mm 2 m/S 703 mmHg 93%
13:00 +9°C° 0.6 mm 2 m/S 703 mmHg 94%
14:00 +11°C° 0.1 mm 1 m/S 703 mmHg 90%
15:00 +11°C° 0.1 mm 1 m/S 703 mmHg 87%
16:00 +12°C° 0.1 mm 1 m/S 703 mmHg 83%
17:00 +11°C° 0.1 mm 1 m/S 703 mmHg 85%
18:00 +10°C° 0.1 mm 1 m/S 703 mmHg 87%
19:00 +9°C° 0.1 mm 1 m/S 703 mmHg 90%
20:00 +9°C° 0 mm 1 m/S 703 mmHg 90%
21:00 +8°C° 0 mm 1 m/S 703 mmHg 91%
22:00 +7°C° 0 mm 1 m/S 703 mmHg 92%
23:00 +6°C° 0 mm 2 m/S 703 mmHg 92%

17 Mai, Montag

Zeit Temperatur Niederschläge Wind Luftdruck Luftfeuchtigkeit
00:00 +5°C° 0 mm 2 m/S 703 mmHg 92%
01:00 +5°C° 0 mm 2 m/S 704 mmHg 92%
02:00 +5°C° 0 mm 2 m/S 703 mmHg 91%
03:00 +5°C° 0 mm 2 m/S 703 mmHg 91%
04:00 +6°C° 0 mm 1 m/S 703 mmHg 90%
05:00 +8°C° 0 mm 1 m/S 703 mmHg 86%
06:00 +10°C° 0 mm 1 m/S 703 mmHg 81%
07:00 +12°C° 0 mm 1 m/S 704 mmHg 76%
08:00 +12°C° 0.1 mm 1 m/S 703 mmHg 76%
09:00 +12°C° 0.1 mm 1 m/S 703 mmHg 76%
10:00 +13°C° 0.1 mm 1 m/S 703 mmHg 76%
11:00 +13°C° 0.5 mm 1 m/S 703 mmHg 80%
12:00 +12°C° 0.5 mm 1 m/S 703 mmHg 84%
13:00 +12°C° 0.5 mm 1 m/S 703 mmHg 87%
14:00 +12°C° 0.8 mm 1 m/S 703 mmHg 88%
15:00 +12°C° 0.8 mm 1 m/S 703 mmHg 88%
16:00 +12°C° 0.8 mm 1 m/S 703 mmHg 89%
17:00 +11°C° 0.5 mm 1 m/S 703 mmHg 90%
18:00 +10°C° 0.5 mm 2 m/S 703 mmHg 92%
19:00 +9°C° 0.5 mm 2 m/S 703 mmHg 93%
20:00 +9°C° 0.6 mm 2 m/S 703 mmHg 93%
21:00 +8°C° 0.6 mm 2 m/S 704 mmHg 94%
22:00 +8°C° 0.6 mm 2 m/S 704 mmHg 94%
23:00 +7°C° 0 mm 2 m/S 704 mmHg 94%

18 Mai, Dienstag

Zeit Temperatur Niederschläge Wind Luftdruck Luftfeuchtigkeit
00:00 +6°C° 0 mm 2 m/S 704 mmHg 94%
01:00 +6°C° 0 mm 2 m/S 704 mmHg 94%
02:00 +5°C° 0 mm 2 m/S 704 mmHg 95%
03:00 +5°C° 0 mm 2 m/S 704 mmHg 95%
04:00 +4°C° 0 mm 2 m/S 704 mmHg 95%
05:00 +6°C° 0 mm 2 m/S 704 mmHg 91%
06:00 +7°C° 0 mm 2 m/S 705 mmHg 87%
07:00 +9°C° 0 mm 3 m/S 705 mmHg 83%
08:00 +10°C° 0 mm 3 m/S 705 mmHg 76%
09:00 +11°C° 0 mm 4 m/S 705 mmHg 68%
10:00 +12°C° 0 mm 4 m/S 705 mmHg 61%
11:00 +13°C° 0.2 mm 4 m/S 705 mmHg 61%
12:00 +13°C° 0.2 mm 4 m/S 705 mmHg 61%
13:00 +13°C° 0.2 mm 4 m/S 705 mmHg 61%
14:00 +13°C° 0.2 mm 4 m/S 705 mmHg 63%
15:00 +13°C° 0.2 mm 4 m/S 705 mmHg 65%
16:00 +12°C° 0.2 mm 3 m/S 705 mmHg 66%
17:00 +11°C° 0.4 mm 3 m/S 705 mmHg 75%
18:00 +9°C° 0.4 mm 2 m/S 705 mmHg 83%
19:00 +9°C° 0.4 mm 1 m/S 705 mmHg 91%
20:00 +8°C° 0.1 mm 1 m/S 706 mmHg 92%
21:00 +8°C° 0.1 mm 1 m/S 706 mmHg 93%
22:00 +8°C° 0.1 mm 1 m/S 706 mmHg 94%
23:00 +7°C° 0.1 mm 1 m/S 706 mmHg 94%

19 Mai, Mittwoch

Zeit Temperatur Niederschläge Wind Luftdruck Luftfeuchtigkeit
00:00 +7°C° 0.1 mm 1 m/S 706 mmHg 94%
01:00 +7°C° 0.1 mm 1 m/S 706 mmHg 94%
02:00 +7°C° 0.1 mm 1 m/S 706 mmHg 94%
03:00 +7°C° 0.1 mm 1 m/S 706 mmHg 93%
04:00 +7°C° 0.1 mm 1 m/S 707 mmHg 92%
05:00 +8°C° 0 mm 1 m/S 707 mmHg 90%
06:00 +9°C° 0 mm 1 m/S 707 mmHg 87%
07:00 +10°C° 0 mm 1 m/S 708 mmHg 84%
08:00 +9°C° 0.3 mm 2 m/S 708 mmHg 79%
09:00 +10°C° 0.3 mm 2 m/S 708 mmHg 75%
10:00 +12°C° 0.3 mm 2 m/S 708 mmHg 70%
11:00 +12°C° 0.4 mm 2 m/S 708 mmHg 71%
12:00 +11°C° 0.4 mm 3 m/S 708 mmHg 71%
13:00 +11°C° 0.4 mm 3 m/S 708 mmHg 72%
14:00 +11°C° 0.4 mm 3 m/S 709 mmHg 72%
15:00 +12°C° 0.4 mm 2 m/S 709 mmHg 72%
16:00 +12°C° 0.4 mm 2 m/S 709 mmHg 72%
17:00 +10°C° 0.2 mm 2 m/S 709 mmHg 77%
18:00 +9°C° 0.2 mm 1 m/S 709 mmHg 82%
19:00 +8°C° 0.2 mm 1 m/S 709 mmHg 87%
20:00 +7°C° 0 mm 1 m/S 710 mmHg 89%
21:00 +7°C° 0 mm 1 m/S 710 mmHg 91%
22:00 +6°C° 0 mm 1 m/S 710 mmHg 93%
23:00 +5°C° 0 mm 1 m/S 711 mmHg 93%
Mehr zeigen

Wir brauchen deine Erlaubnis

Meteoprog und unser Service Anbieter werden persönliche Daten aufbewahren, so wie Cookies, Geräte Bezeichnung oder ähnliche Technologien von deinem Gerät und Prozess, so wie Persönliche Daten Inhalte und Werbungen, genauso wie social Media und den Verkehr zu analysieren.

  • Aufbewahrung und/oder Zugang zu deiner Geräte Informationen.

    Cookies, Geräte Bezeichnung oder andere Informationen, können aufbewahrt oder Zugang zu deinem Gerät erhalten, für den Grund, der oben angegeben wird.

  • Personalisierte Werbung und Inhalte, Messungen, Einblick in das Publikum und Produkt Entwicklung.

    Werbungen und Inhalte können personalisiert werden, basierend auf ein Profil. Mehr Daten können besser personalisierte Werbungen und Inhalte hinzufügen. Werbung und Inhalte können gezeigt und gemessen werden. Einblicke über das Publikum, welche die Werbung gesehen haben und den Inhalt, können abgeleitet werden. So wie Daten können genutzt werden, um es zu verbessern oder die Benutzer Erfahrung zu verbessern das System und die Software.

Wenn du “Ich stimme zu” klickst, erlaubst du uns, die Cookies zu benutzen die Geräte Bezeichnung, den Web oder ähnliche Technologien zu benutzen. Deine Settings, können in deinem Gerät bei deinem Browser geändert werden.

Für den bestimmten Zweck, berechtigten Interessen beruhen darauf, mehr als auf den Inhalt. Du kannst mehr darüber in unseren Privaten und Cookie Politik lesen.